Location: Aiyekoto
(8.4333°N, 4.3667°E)
Time: 22:33:23
(UTC+00:00)

GPS 2-15 Rocket1 - Pass Details

Date: 07 June 2020
Orbit: 624 x 675 km, 19.8° (Epoch: 10 July)

Event Time Altitude Azimuth Distance (km) Brightness Sun altitude
Exits shadow 04:47:58 11° 249° (WSW) 1,945 4.9 -8.9°
Maximum altitude 04:52:32 84° 162° (SSE) 649 3.2 -7.8°
Drops below altitude 10° 04:57:22 10° 72° (ENE) 2,050 7.5 -6.8°
Sets 04:59:46 0° 72° (ENE) 2,970 9.1 -6.2°
